Location: *
(51.1333°S, 179.6833°E)
Time: 08:34:07
(UTC+00:00)

Daily predictions for brighter satellites

Satellite Brightness Start Highest point End
(mag) Time Altitude Azimuth Time Altitude Azimuth Time Altitude Azimuth
SJ 16-02 1.4 12:03:17 35° N 12:04:58 63° ENE 12:09:23 10° SSE
Meteor 2-5 Rocket 3.8 12:04:49 10° S 12:10:42 77° ESE 12:14:11 25° NNE
Cosmos 1674 Rocket 4.0 12:07:46 10° S 12:12:15 57° ESE 12:14:39 25° NE
Cosmos 1697 Rocket 2.8 12:09:53 10° SW 12:15:32 61° WNW 12:18:30 28° N
Spot 4 3.9 12:11:42 10° SSE 12:16:37 74° ENE 12:18:58 31° N
ADEOS II 3.4 12:12:17 10° NE 12:17:07 37° ESE 12:21:59 10° S
Cosmos 1908 3.1 12:20:56 40° N 12:22:13 80° E 12:26:02 10° SSE
Cosmos 1703 3.8 12:18:29 10° S 12:22:19 51° ESE 12:24:12 26° NE
MOS 1 Rocket 4.2 12:17:28 10° S 12:22:47 51° WSW 12:26:10 21° NW
Cosmos 1821 Rocket 4.1 12:21:04 10° SSW 12:27:21 70° W 12:31:07 26° N
GP-B 3.4 12:23:36 10° S 12:28:02 56° W 12:30:02 30° NNW
ARGOS Delta rocket 3.8 12:23:47 10° SSE 12:28:26 67° E 12:30:32 31° N
USA 81 4.1 12:25:49 28° N 12:28:41 79° E 12:34:03 10° S
Cosmos 1570 Rocket 4.3 12:24:29 10° SSW 12:29:41 52° WNW 12:32:09 29° NNW
Resurs 1-4 Rocket 2.3 12:26:23 20° NNE 12:30:07 69° ESE 12:35:27 10° SSW
IDEFIX/ARIANE 42P 2.9 12:26:51 20° NNE 12:30:35 68° ESE 12:35:54 10° S
Cosmos 1470 3.4 12:29:47 29° NW 12:31:23 45° WSW 12:35:12 10° S
Cosmos 773 Rocket 4.5 12:26:44 10° SSW 12:32:04 61° ESE 12:36:50 13° NE
ATLAS 3B R/B 2.5 12:27:44 10° SW 12:34:10 82° SE 12:40:28 10° NE
Cosmos 836 Rocket 4.5 12:30:54 10° SSW 12:36:18 79° WNW 12:39:37 24° NNE
SL-16 R/B 3.7 12:31:50 10° SSW 12:37:10 37° SE 12:42:26 10° ENE
Meteor 1-22 Rocket 4.1 12:35:05 28° NNW 12:38:00 86° WSW 12:43:25 10° SSE
Lacrosse 5 rocket 1.4 12:38:47 10° WSW 12:42:25 64° SSE 12:46:06 10° ENE
Meteor 1-15 Rocket 4.3 12:39:22 26° NNW 12:42:47 74° WSW 12:48:33 10° S
CZ-2D R/B 2.3 12:39:10 20° NNE 12:43:03 83° ESE 12:48:39 10° SSW
H-2A R/B 4.3 12:42:20 28° NW 12:43:45 37° W 12:47:42 10° SSW
Cosmos 1825 4.4 12:41:09 10° SSE 12:43:54 20° ESE 12:46:38 10° ENE
Cosmos 1980 Rocket 2.2 12:39:06 10° SSW 12:44:48 71° WNW 12:48:42 21° NNE
COSMOS 2406 3.7 12:41:45 24° N 12:44:54 50° ENE 12:50:30 10° SE
ATLAS CENTAUR R/B 2.3 12:42:02 10° SW 12:46:30 54° SE 12:50:50 10° ENE
Cosmos 2369 3.7 12:41:32 10° SSW 12:47:16 79° WNW 12:51:33 18° NNE
ATLAS 5 CENTAUR R/B 4.4 12:43:22 10° SW 12:49:28 72° NW 13:17:03 10° NNE
Cosmos 1340 2.9 12:49:31 32° NNE 12:50:56 55° E 12:54:30 10° SSE
Cosmos 1378 Rocket 3.8 12:46:37 10° SSW 12:50:57 56° W 12:52:55 30° NNW
Cosmos 1908 Rocket 3.8 12:52:20 26° N 12:54:44 64° E 12:59:15 10° SSE
Cosmos 1733 Rocket 3.7 12:54:41 25° NW 12:56:53 46° WSW 13:01:11 10° S
USA 306 4.2 12:57:19 18° NE 12:57:22 18° NE 12:59:49 10° E
Cosmos 1300 2.8 12:57:13 30° N 12:58:52 65° E 13:02:36 10° SSE
Cosmos 1455 4.5 12:59:09 10° NE 13:01:35 17° E 13:04:02 10° SE
Cosmos 1833 Rocket 3.4 12:58:36 16° WNW 13:02:59 49° SW 13:08:31 10° SSE
Cosmos 1408 2.2 13:00:07 10° SSW 13:03:26 73° W 13:04:36 37° N
Cosmos 158 Rocket 3.9 13:00:08 10° SSW 13:05:00 59° WNW 13:07:53 24° N
Cosmos 2221 Rocket 4.2 13:00:45 10° SSW 13:05:10 45° W 13:07:18 26° NNW
Meteor 2-10 Rocket 3.8 13:03:32 23° N 13:07:15 81° E 13:13:11 10° SSE
ATLAS 2AS CENTAUR R/B 2.7 13:02:09 18° NW 13:07:25 83° SW 13:14:30 10° SE
FENGYUN 3A 4.2 13:02:15 10° NNE 13:07:35 60° ESE 13:12:58 10° S
Cosmos 1356 Rocket 4.2 13:06:21 10° SSW 13:10:18 37° W 13:12:03 25° NW
Cosmos 1633 2.0 13:13:59 10° S 13:17:05 90° ESE 13:18:24 31° N
ISS -1.6 13:17:10 15° NE 13:17:20 15° NE 13:19:20 10° ENE
Lacrosse 4 Rocket 4.3 13:16:46 10° SW 13:18:12 12° SSW 13:19:39 10° S
Cosmos 1486 Rocket 4.1 13:14:50 23° NNW 13:18:17 76° WSW 13:23:42 10° SSE
Cosmos 1758 3.8 13:16:23 25° NW 13:18:23 48° WSW 13:22:20 10° S
Cosmos 2278 3.7 13:17:33 10° SSW 13:23:20 89° WNW 13:29:04 10° NNE
NPP 4.2 13:22:23 22° NNW 13:25:35 44° W 13:30:50 10° SSW
Cosmos 2082 Rocket 2.2 13:22:45 21° NNW 13:26:42 84° WSW 13:32:30 10° SSE
Helios 1A Rocket 2.8 13:23:15 10° SSE 13:27:17 78° WSW 13:29:33 25° NNW
Cosmos 1300 Rocket 4.0 13:27:30 18° N 13:30:43 59° E 13:35:11 10° SSE
Cosmos 2098 Rocket 2.5 13:30:36 30° NW 13:31:45 51° WSW 13:34:53 10° S
USA 229 DEB 3.9 13:25:07 10° SW 13:32:03 70° SE 13:38:19 10° NE
USA 229 3.9 13:25:10 10° SW 13:32:07 69° SE 13:38:23 10° NE
Cosmos 2237 4.4 13:27:02 10° SSW 13:32:50 78° ESE 13:38:35 10° NE
CZ-2C R/B 4.1 13:29:42 10° NE 13:34:20 34° ESE 13:38:55 10° S
USA 308 1.3 13:33:47 43° NW 13:34:25 79° NNE 13:37:06 10° ESE
CZ-2C R/B 3.7 13:29:18 10° NNE 13:34:51 67° ESE 13:40:42 10° S
Cosmos 1025 Rocket 3.2 13:32:43 10° SSW 13:37:09 60° W 13:40:05 20° N
ALOS 2 4.0 13:34:45 10° S 13:38:35 28° WSW 13:41:37 14° WNW
Cosmos 1777 Rocket 4.0 13:36:00 20° NNW 13:39:41 81° ENE 13:44:59 10° SSE
Cosmos 1867 4.1 13:36:57 10° SW 13:41:56 38° WNW 13:46:02 14° N
ALOS 2.5 13:37:21 10° NNE 13:42:01 72° ESE 13:46:45 10° S
Cosmos 2360 Rocket 3.2 13:36:49 10° SSW 13:42:23 51° SE 13:47:56 10° NE
SJ 16-02 3.3 13:40:28 10° W 13:43:49 21° SW 13:47:13 10° S
NOSS 3-1 (A) 3.4 13:37:49 10° SW 13:44:22 57° NW 13:49:40 10° NNE
NOSS 3-1 (C) 4.1 13:39:10 10° SW 13:44:45 31° WNW 13:48:04 17° NNW
Genesis I 3.7 13:41:38 10° SW 13:45:05 35° WNW 13:47:08 20° N
USA 215 4.5 13:44:50 17° NW 13:46:46 19° WNW 13:51:17 10° W
Cosmos 1727 Rocket 4.4 13:42:51 11° N 13:48:42 64° E 13:54:56 10° SSE
Cosmos 2219 Rocket 4.0 13:43:36 10° SSW 13:48:43 34° SE 13:53:48 10° ENE
Cosmos 1953 2.3 13:46:52 21° NNW 13:49:26 72° WSW 13:53:28 10° S
CZ-4 R/B 3.8 13:46:44 10° NNE 13:51:27 85° WNW 13:56:12 10° SSW
Thor Agena Rocket 3.6 13:48:54 10° NNE 13:54:02 84° ESE 13:59:19 10° SSW
Cosmos 1503 Rocket 4.3 13:52:19 17° NW 13:56:16 60° WSW 14:01:29 10° SSE
ADEOS II 2.7 13:53:01 17° NNW 13:56:43 40° W 14:01:44 10° SSW
Cosmos 1605 Rocket 4.2 13:51:56 10° SSW 13:57:55 53° W 14:03:03 14° NNW
Meteor 1-16 Rocket 4.4 13:54:13 17° NNW 13:58:25 60° WSW 14:04:06 10° S
USA 305 3.1 13:58:56 17° NNE 13:59:03 17° NE 14:00:30 10° E
Cosmos 1328 4.0 13:55:13 10° SSW 13:59:05 53° W 14:02:01 16° NNW
Cosmos 1315 Rocket 3.5 13:55:19 10° SSW 13:59:06 38° W 14:01:41 18° NNW
Cosmos 2322 Rocket 2.3 13:53:35 10° SSW 13:59:18 81° ESE 14:04:57 10° NNE
Cosmos 304 Rocket 4.4 13:55:33 13° N 13:59:37 50° ENE 14:04:20 10° SSE
USA 281 3.8 13:53:41 10° NE 14:00:11 64° SE 14:06:44 10° SSW
ATLAS 5 CENTAUR R/B 4.4 13:55:52 10° SW 14:01:44 31° SSE 14:06:41 10° ESE
Meteor 1-21 Rocket 4.4 13:57:54 10° SSW 14:03:30 58° W 14:08:38 12° N
USA 307 2.8 14:04:20 21° N 14:04:59 24° NE 14:06:56 10° E
Cosmos 1782 Rocket 4.0 14:02:06 17° NNW 14:05:24 51° WSW 14:09:52 10° S
Meteor 1-4 Rocket 2.2 14:03:30 10° SSW 14:06:47 87° ESE 14:10:01 10° NNE
Cosmos 2333 Rocket 2.8 14:01:27 10° SSW 14:07:08 61° SE 14:12:46 10° NE
Cosmos 2173 Rocket 4.2 14:00:59 10° S 14:07:12 74° ESE 14:13:19 10° NNE
Cosmos 1354 Rocket 4.3 14:03:28 16° NW 14:07:42 62° WSW 14:12:59 10° SSE
Cosmos 1892 3.4 14:07:04 10° SSW 14:10:26 34° W 14:12:48 16° NNW
Resurs 1-4 Rocket 3.6 14:07:27 14° NW 14:10:27 21° W 14:14:27 10° SW
IDEFIX/ARIANE 42P 4.0 14:07:36 14° NW 14:10:37 22° W 14:14:40 10° SW
Okean 2 Rocket 3.8 14:13:35 10° N 14:17:58 54° E 14:22:22 10° SSE
Cosmos 2100 Rocket 4.0 14:11:51 10° S 14:18:08 90° NNW 14:24:21 10° N
Envisat 3.4 14:13:06 10° NNE 14:18:11 67° ESE 14:23:20 10° S
Cosmos 1802 Rocket 4.4 14:11:59 10° S 14:18:28 69° ESE 14:24:47 10° NNE
Geosat 4.0 14:13:31 10° NNE 14:18:35 86° WNW 14:23:42 10° SSW
Cosmos 1825 2.8 14:15:22 10° SSW 14:18:43 36° W 14:21:22 14° NNW
Cosmos 371 Rocket 3.3 14:15:44 14° NNW 14:20:00 89° WSW 14:24:59 10° SSE
Lacrosse 5 rocket 1.9 14:17:36 10° WSW 14:20:45 27° NW 14:23:58 10° NNE
SL-16 R/B 2.4 14:15:56 10° SW 14:21:29 51° WNW 14:26:58 10° N
Cosmos 1975 Rocket 3.9 14:18:15 10° SSW 14:22:14 33° W 14:25:39 13° NNW
Cosmos 923 Rocket 4.4 14:17:20 10° SSW 14:22:37 68° ESE 14:27:52 10° NE
CZ-2D R/B 3.8 14:20:28 12° NW 14:23:45 18° W 14:27:34 10° SW
ATLAS 3B R/B 3.5 14:19:07 10° WSW 14:24:08 25° WNW 14:29:09 10° NNW
ATLAS CENTAUR R/B 2.5 14:20:31 10° WSW 14:24:21 28° WNW 14:28:04 10° N
Cosmos 990 Rocket 4.2 14:20:14 11° NNW 14:25:11 74° ENE 14:30:30 10° SSE
Cosmos 1980 Rocket 4.0 14:25:14 10° WSW 14:27:47 13° W 14:30:20 10° WNW
METEOR-M 4.2 14:23:03 10° NNE 14:28:27 82° WNW 14:33:56 10° SSW
COSMOS 2406 4.2 14:24:02 10° WNW 14:29:24 38° SW 14:34:50 10° SSE
YAOGAN 6 3.3 14:26:58 10° NNE 14:30:14 51° ESE 14:33:35 10° S
USA 306 2.4 14:29:08 12° WNW 14:32:18 76° NNE 14:36:04 10° ESE
Cosmos 1455 2.7 14:32:57 12° NNW 14:36:07 44° WSW 14:39:42 10° S
Cosmos 1725 Rocket 4.3 14:29:59 10° S 14:36:26 76° E 14:42:49 10° NNE
IRS-1D 3.6 14:31:34 10° N 14:36:52 72° WNW 14:42:18 10° SSW
Cosmos 44 Rocket 3.5 14:32:37 11° NW 14:37:10 60° SW 14:41:47 10° SE
Okean 1 Rocket 3.9 14:33:17 10° N 14:37:39 51° E 14:42:04 10° SSE
Cosmos 1680 Rocket 3.9 14:34:14 10° SSW 14:39:36 70° ESE 14:44:57 10° NNE
H-2A R/B 4.4 14:35:16 10° ENE 14:39:43 28° ESE 14:44:17 10° S
Cosmos 1536 Rocket 3.6 14:36:42 10° SSW 14:41:15 72° W 14:45:44 10° N
Cosmos 1242 Rocket 3.1 14:39:29 10° S 14:42:46 54° ESE 14:46:00 10° NNE
Cosmos 2333 4.3 14:38:17 10° SSW 14:43:59 89° ESE 14:49:40 10° NNE
Cosmos 2112 Rocket 4.4 14:45:19 10° SSW 14:50:43 74° ESE 14:56:06 10° NNE
COBE Rocket 3.9 14:46:42 10° N 14:51:19 62° W 14:56:02 10° SSW
MOZ.5/SAFIR/RUBIN 5/SL-8 3.9 14:46:51 10° S 14:51:37 72° WSW 14:56:17 10° NNW
ISS -3.4 14:50:12 10° NW 14:53:33 54° NNE 14:56:56 10° E
Cosmos 2151 Rocket 3.8 14:51:37 10° NNW 14:56:08 66° WSW 15:00:44 10° S
ATLAS 2AS CENTAUR R/B 4.0 14:53:03 10° W 14:59:17 36° SSW 15:05:51 10° SE
SL-16 R/B 3.8 14:54:20 10° SSE 15:00:12 40° E 15:05:59 10° NNE
Cosmos 1459 Rocket 4.3 14:55:04 10° SSW 15:01:18 52° W 15:07:28 10° NNW
IRIDIUM 104 4.4 14:57:50 10° S 15:03:11 85° W 15:08:28 10° N
DNEPR-1 R/B 3.7 14:59:15 10° NW 15:03:36 64° SW 15:07:42 10° SE
Cosmos 1441 Rocket 3.2 15:01:33 10° NNW 15:05:27 78° WSW 15:09:22 10° S
